Content
SEND FEEDBACK

Daily
Averages
Monthly
Summary
Brazil

FLORIANOPOLIS, SANTA CATARINA


Home > South America > Brazil > Santa Catarina
Elevation: 16 feet     Latitude: 27 40S     Longitude: 048 33W

WEATHER
 
SELECT A DAY
Number of Records: 182,528;   Date Range: 6/30/96 - 8/31/14
 
SHARE

PRINT THIS DATA

[ ← Previous Day ]
WEATHER ALMANAC - JULY 4, 2013
[ Next Day → ]
[ °C ]   °F
Weather ElementAverageHighLow
Temperature67.2 °F73.4 °F (3:00 pm)64.4 °F (1:00 am)
Dewpoint63.6 °F64.4 °F (9:35 am)62.6 °F (1:00 am)
Humidity88 %94 % (1:00 am)66 % (3:00 pm)
Barometer30.24 in30.30 in (9:35 am)30.18 in (3:00 pm)
Wind Speed8.8 mph12.7 mph (2:00 pm)
Weather ElementAverage
Visibility6.9 mi
Wind DirectionNW (315.9 °)

Weather ElementTotal
Precipitation---
Cooling Degree Days3.9 (Base 65)
Growing Degree Days18.9 (Base 50)
Averaged from 27 records on July 4, 2013
WEATHER CONDITIONS BREAKOUT
WIND DIRECTION BREAKOUT
WEATHER BY HOUR - JULY 4, 2013
[ °C ]   °F
Local TimeTemperatureDewpointHumidityBarometerVisibilityWind DirectionWind SpeedGust SpeedPrecipitationEventsConditions
1:00 AM64.4 °F62.6 °F94 %30.27 in6.2 miNNW (340°)4.6 mphMostly Cloudy
2:00 AM64.4 °F62.6 °F94 %30.27 in6.2 miNNW (340°)4.6 mphMostly Cloudy
3:00 AM65.0 °F63.0 °F91 %30.26 in12.0 miNNW (340°)5.8 mphMostly Cloudy
3:00 AM66.2 °F62.6 °F88 %30.24 in6.2 miNNW (340°)5.8 mphMostly Cloudy
4:00 AM64.4 °F62.6 °F94 %30.24 in6.2 miNNW (330°)8.1 mphMostly Cloudy
5:00 AM64.4 °F62.6 °F94 %30.24 in6.2 miNorth (350°)5.8 mphMostly Cloudy
6:00 AM64.4 °F62.6 °F94 %30.24 in6.2 miNNW (340°)4.6 mphMostly Cloudy
7:00 AM64.4 °F62.6 °F94 %30.24 in6.2 miNNW (340°)5.8 mphMostly Cloudy
8:00 AM64.4 °F62.6 °F94 %30.27 in6.2 miNW (310°)6.9 mphMostly Cloudy
9:00 AM66.2 °F62.6 °F88 %30.27 in6.2 miNNW (330°)6.9 mphMostly Cloudy
9:35 AM68.0 °F64.4 °F88 %30.30 in6.2 miNW (320°)6.9 mphMostly Cloudy
10:00 AM68.0 °F64.4 °F88 %30.30 in6.2 miNNW (340°)9.2 mphMostly Cloudy
11:00 AM68.0 °F64.4 °F88 %30.27 in6.2 miNNW (330°)9.2 mphMostly Cloudy
12:00 PM69.8 °F64.4 °F83 %30.27 in6.2 miNW (320°)11.5 mphMostly Cloudy
1:00 PM69.8 °F64.4 °F83 %30.24 in6.2 miNorth (350°)11.5 mphScattered Clouds
2:00 PM71.6 °F64.4 °F78 %30.21 in6.2 miNNW (340°)12.7 mphScattered Clouds
3:00 PM73.0 °F64.0 °F66 %30.20 in12.0 miNorth12.7 mphPartly Cloudy
3:00 PM73.4 °F64.4 °F73 %30.18 in6.2 miNorth (360°)12.7 mphScattered Clouds
4:00 PM71.6 °F64.4 °F78 %30.18 in6.2 miNorth (360°)12.7 mphPartly Cloudy
5:00 PM69.8 °F64.4 °F83 %30.18 in6.2 miNorth (360°)9.2 mphPartly Cloudy
6:00 PM68.0 °F64.4 °F88 %30.18 in6.2 miNNW (330°)9.2 mphPartly Cloudy
7:00 PM66.2 °F62.6 °F88 %30.18 inNorth (360°)12.7 mphClear
8:00 PM66.2 °F64.4 °F94 %30.21 in6.2 miNNW (330°)8.1 mphScattered Clouds
9:00 PM66.0 °F64.0 °F91 %30.25 in12.0 miNorth11.5 mphMostly Cloudy
9:00 PM66.2 °F64.4 °F94 %30.24 in6.2 miNorth (360°)11.5 mphMostly Cloudy
10:00 PM66.2 °F64.4 °F94 %30.24 in6.2 miNorth (360°)9.2 mphScattered Clouds
11:00 PM64.4 °F62.6 °F94 %30.24 in6.2 miNorth (350°)6.9 mphScattered Clouds
Hourly data recorded from SBFL, located miles away from Florianopolis, Santa Catarina







STORIES FROM OUR PARTNERS